Regional Weather Roundup
Issued by NWS Upton, NY

Current Version | Previous Version | Graphics & Text | Print | Product List | Glossary Off
Versions: 1 2 3 4 5 6 7 8 9 10 11 12 13 14 15 16 17 18 19 20 21 22 23 24 25 26 27 28 29 30 31 32 33 34 35 36 37 38 39 40 41 42 43 44 45 46 47 48 49 50

000
ASUS41 KOKX 061604
RWROKX

REGIONAL WEATHER ROUNDUP
NATIONAL WEATHER SERVICE NEW YORK NY
1100 AM EST SAT FEB 06 2016

NOTE: "FAIR" INDICATES FEW OR NO CLOUDS BELOW 12,000 FEET WITH NO
SIGNIFICANT WEATHER AND/OR OBSTRUCTIONS TO VISIBILITY.

NYZ071-072-176-178-NJZ106-104-061700-
NEW YORK CITY METRO AREA


CITY           SKY/WX    TMP DP  RH WIND       PRES   REMARKS
CENTRAL PARK   MOSUNNY   37  20  50 CALM      30.43F
LAGUARDIA APRT PTSUNNY   38  18  44 SW7       30.42F WCI  33
KENNEDY INTL   CLOUDY    36  20  52 W8        30.44F WCI  30
NEWARK/LIBERTY PTSUNNY   36  22  56 SW8       30.42F WCI  30
BRNX BOT. GARD   N/A     37  19  48 SW10      30.42F WCI  30
TETERBORO      MOSUNNY   36  18  48 SW7       30.41F WCI  30
$$

NYZ177-179-078>081-061700-
LONG ISLAND NEW YORK

CITY           SKY/WX    TMP DP  RH WIND       PRES   REMARKS
FARMINGDALE    SUNNY     36  20  52 W10       30.42F WCI  28
ISLIP          CLOUDY    35  22  58 W7        30.41F WCI  29
SHIRLEY        MOSUNNY   34  23  64 W6        30.43F WCI  29
RIVERHEAD        N/A     39  19  45 W6        30.46S WCI  35
WESTHAMPTON      N/A    N/A N/A N/A MISG      30.44F
EAST HAMPTON   SUNNY     34  21  60 CALM      30.42F
MONTAUK POINT    N/A     35  23  61 W6        30.43S WCI  30
$$

NYZ052-065-067-061700-
HUDSON VALLEY

CITY           SKY/WX    TMP DP  RH WIND       PRES   REMARKS
WHITE PLAINS   MOSUNNY   34  17  50 VRB5      30.38F WCI  30
NEWBURGH       PTSUNNY   34  21  60 W7        30.38F WCI  28
MONTGOMERY     MOSUNNY   35  20  54 SW10      30.36F WCI  27
POUGHKEEPSIE   MOSUNNY   36  18  48 SW7       30.38F WCI  30
ALBANY         PTSUNNY   34  18  52 S9G18     30.32F WCI  27
$$

NJZ001-105-106-008-010-013-015-019>022-104-061700-
NEW JERSEY

CITY           SKY/WX    TMP DP  RH WIND       PRES   REMARKS
NEWARK/LIBERTY PTSUNNY   36  22  56 SW8       30.42F WCI  30
TETERBORO      MOSUNNY   36  18  48 SW7       30.41F WCI  30
CALDWELL       SUNNY     36  17  46 VRB6      30.41F WCI  31
MORRISTOWN     PTSUNNY   36  19  51 SW8       30.42F WCI  29
SOMERVILLE     SUNNY     37  21  52 NE3       30.40F
SUSSEX         CLOUDY    34  19  54 SW7       30.37F WCI  28
ANDOVER          N/A     33  18  53 SW5       30.38F WCI  29
TRENTON        CLOUDY    35  18  49 W5        30.42F WCI  31
MILLVILLE      CLOUDY    38  22  52 W8        30.46S WCI  32
ATLANTIC CITY  CLOUDY    37  20  50 SW5       30.45F WCI  33
WRIGHTSTOWN    MOSUNNY   36  22  56 SW7       30.41F WCI  31
TOMS RIVER     CLOUDY    37  19  48 W7        30.44F WCI  32
BELMAR         SUNNY     36  18  48 SW7       30.42F WCI  30
$$

PAZ047>061-062-071-061700-
EASTERN PENNSYLVANIA

CITY           SKY/WX    TMP DP  RH WIND       PRES   REMARKS
PHILADELPHIA   PTSUNNY   38  18  44 W7        30.45F WCI  33
ALLENTOWN      MOSUNNY   36  19  50 SW10      30.40F WCI  28
SCRANTON       CLOUDY    33  20  58 W6        30.32F WCI  28
$$

CTZ002-004>006-009-010-012-RIZ004-006-007-MAZ004-011-015-061700-
SOUTHERN NEW ENGLAND
 IN CT

CITY           SKY/WX    TMP DP  RH WIND       PRES   REMARKS
BRADLEY INTL   CLOUDY    29  22  75 S8        30.37F WCI  21
HARTFORD       CLOUDY    32  24  72 S6        30.40F WCI  26
DANBURY        CLOUDY    33  16  49 W8        30.39F WCI  26
WTRBRY/OXFORD  MOSUNNY   32  14  47 MISG      30.38F
BRIDGEPORT     CLOUDY    36  23  59 SW8       30.42F WCI  30
MERIDEN        PTSUNNY   33  21  61 S6        30.40F WCI  28
NEW HAVEN      MOSUNNY   33  21  61 SW10      30.41F WCI  25
CHESTER        FAIR      34  21  60 SW7       30.39F WCI  28
GROTON         MOSUNNY   33  24  69 W5        30.42S WCI  29
WILLIMANTIC    CLOUDY    29  23  78 CALM      30.40F

 IN RI

CITY           SKY/WX    TMP DP  RH WIND       PRES   REMARKS
PROVIDENCE     CLOUDY    31  25  78 SW5       30.41S WCI  26
BLOCK ISLAND   CLOUDY    34  21  60 W7        30.41S WCI  28
WESTERLY       CLOUDY    33  26  75 CALM      30.42S

 IN MA

CITY           SKY/WX    TMP DP  RH WIND       PRES   REMARKS
BOSTON         CLOUDY    30  22  72 SW8       30.38F WCI  22
WORCESTER        N/A    N/A N/A N/A MISG      30.32F
WESTFIELD      CLOUDY    31  20  63 S7        30.36F WCI  24
PROVINCETOWN   CLOUDY    33  24  69 SW8       30.40R WCI  26
NANTUCKET      SUNNY     34  20  56 W6        30.40F WCI  29
$$

ANZ330-335-338-340-345-350-353-355-061700-
COASTAL MARINE OBSERVATIONS


STATION/POSITION TIME  SKY/WX   TEMP    WIND        PRES    VSBY  WAVE
                                AIR SEA DIR/SP/G                  HT/PER
                 (UTC)          (F)     (DEG/KT/KT) (MB)    (MI)  (FT/S)
NY HARB ENTRANCE 1450            35 44  270/  8/ 10 1030.6          2/10
4S FIRE IS       NOT AVBL
20S FIRE ISLAND  1450            36 45  300/  6/  8 1030.9          2/10
GREAT SOUTH BAY  NOT AVBL
23SW MTP         1550            34 46  290/  4/  8 1030.2          2/10
HUDSON CANYON    1450            39 51              1030.8          4/ 5
KINGS POINT      1500            35 39  330/  6/  8 1030.2
EXECUTION ROCKS  NOT AVBL
CENTRAL LI SOUND 1500            34     270/ 10/ 12   N/A           1/ 2
EASTERN LI SOUND 1500            38 41  290/  8/ 10   N/A
ROBBINS REEF     1500            33     270/  6/  7 1030.1
$$


>>>>>>>>>>>>>>>>>>>>>>>>>>>> KEY <<<<<<<<<<<<<<<<<<<<<<<<<<<
>                                                          <
>     SKY/WX - SKY CONDITION/PRESENT WEATHER               <
>     TMP    - TEMPERATURE IN FAHRENHEIT                   <
>     DP     - DEWPOINT IN FAHRENHEIT                      <
>     RH     - RELATIVE HUMIDITY IN PERCENT                <
>     WIND   - DIRECTION AND SPEED IN MPH                  <
>     PRES   - MEAN SEA LEVEL PRESSURE IN INCHES OF HG     <
>     WCI    - WIND CHILL INDEX                            <
>     VSB    - VISIBILITY IN MILES                         <
>     HX     - HEAT INDEX                                  <
>     TC     - TEMPERATURE IN CELSIUS                      <
>     VRB    - VARIABLE WIND DIRECTION                     <
>                                                          <
>>>>>>>>>>>>>>>>>>>>>>>>>>>> KEY <<<<<<<<<<<<<<<<<<<<<<<<<<<





USA.gov is the U.S. government's official web portal to all federal, state and local government web resources and services.